COSMOS 1275 DEB, 17640

Orbit data source: Space-Track

COSMOS 1275 DEB, 17640 is space debris in LEO originally from a launch on Thu, 04 Jun 1981 UTC launched from the Plesetsk Missile And Space Complex (PKMTR). Debris objects in space refer to the collection of defunct objects orbiting the Earth. Examples of debris include non-operational satellites, rocket bodies, and fragments generated from explosions, collisions, or faulty payload assembly.

Loading next visibility...
Identifier
17640, 1981-053LK
Orbit
LEO
Country
Flag of CISCIS
Related business
Manufacturer
Unknown
Mission
Spacecraft
Bus & Motor
Unknown
Mass
Unknown
Launch date (UTC)
1981-06-04 (45 years ago)
Launch vehicle
Unknown
Launch site
Plesetsk Missile And Space Complex (PKMTR)
Object type
Payload
Rocket body
Debris
Shape & HBR
Unknown shape, 0.1 m
Radar Cross Section
Small (<0.1 m²)

Expand to show TLE details & history
Last TLE update: 1 day ago

TLE from 1 day ago
0 COSMOS 1275 DEB
1 17640U 81053LK  25354.80675507  .00002881  00000-0  10305-2 0  9992
2 17640  82.9127 128.6156 0022526   5.2887 354.8535 14.33662607785602
Epoch: 2025-12-20T19:21Z
TLE epoch observation values (Epoch: 2025-12-20T19:21:43.638Z)
Latitude
-0.00001°
Longitude
108.55551°
Altitude
766.434 km
Speed
7.479 km/s
True Right ascension
08h 34m 27s
True Declination
0° 00' 00"
Sunlit
Object was in full shadow at epoch
Visualization orbit readout
Latitude
Unknown
Longitude
Unknown
Altitude
Unknown
Speed
Unknown
Apparent Right ascension
Unknown
Apparent Declination
Unknown
Sunlit
N/A
Visualization observer readout
Local Sidereal Time
17:59:07
Azimuth
Unknown
Elevation
Unknown
Doppler factor
Unknown
Orbital elements
Apogee altitude
792.7 km
Perigee altitude
760.467 km
Semi-major axis
7,154.721 km
Eccentricity
0.00225
Inclination
82.9127°
RAAN
128.6156°
Arg. of periapsis
5.2887°
True anomaly
354.83028°
Mean anomaly
354.8535°
Eccentric anomaly
354.8419°
Mean motion
3.58636 °/min
Orbital period
100.38 mins
BSTAR
0.0010305
Loading maneuver chart data...
Computing Atmospheric mass density...
Loading historical data...
Loading historical data...
Loading historical data...
Loading historical data...
Loading historical data...
Loading historical data...
Loading historical data...

Documentation

Showing up to 5 results
|